Location: D�pe
(52.6057°N, 8.1808°E)
Time: 07:42:27
(UTC+00:00)

SeaSat 1 - Pass Details

Date: 29 October 2020
Orbit: 744 x 747 km, 108.0° (Epoch: 01 December)

Event Time Altitude Azimuth Distance (km) Brightness Sun altitude
Exits shadow 19:40:24 33° 256° (WSW) 1,239 3.9 -33.2°
Drops below altitude 10° 19:44:35 10° 314° (NW) 2,274 5.7 -33.8°
Sets 19:47:04 0° 324° (NW) 3,204 6.5 -34.1°
